Location: Rowland
(34.5359°N, 79.2929°W)
Time: 14:21:46
(UTC+00:00)

SR - Pass Details

Date: 09 October 2022
Orbit: 577 x 875 km, 66.7° (Epoch: 28 November)

Event Time Altitude Azimuth Distance (km) Brightness Sun altitude
Rises 23:04:36 0° 177° (S) 3,386 ? -3.8°
Reaches altitude 10° 23:07:18 10° 167° (SSE) 2,482 ? -4.3°
Maximum altitude 23:12:16 30° 108° (ESE) 1,502 ? -5.3°
Drops below altitude 10° 23:17:20 10° 49° (NE) 2,525 ? -6.4°
Sets 23:20:05 0° 39° (NE) 3,455 ? -6.9°
